Tracking 34747 objects as of 17-Jul-2026
HD Live streaming from Space Station
objects crossing your sky now

SL-12 DEB

Track SL-12 DEB now!
10-day predictions


NORAD ID: 27805
Int'l Code: 1992-047L
Perigee: 413.1 km
Apogee: 10,260.5 km
Inclination: 65.2 °
Period: 210.1 minutes
Semi major axis: 11707 km
RCS: 0.048 m2 (small)
Launch date: July 30, 1992
Source: Commonwealth of Independent States (former USSR) (CIS)
Launch site: TYURATAM MISSILE AND SPACE COMPLEX (TTMTR)

Note: This is SATELLITE DEBRIS
Your satellite tracking list
Your tracking list is empty




NASA's NSSDC Master Catalog

Two Line Element Set (TLE):
1 27805U 92047L   26197.02435245  .00011436  00000-0  50074-2 0  9997
2 27805  65.1900 136.2332 4205502  51.8777 339.1825  6.85313390527001
Source of the keplerian elements: AFSPC